CAPE
577 462 452 587 501 435 518 314 16 2 0 0 0 0 0 0 2 10 2 9 15 0 9 23 4 11 12 6 3 16 5 10 8
567 352 365 518 568 359 425 127 3 2 0 0 0 0 0 2 6 9 3 22 4 0 2 11 10 13 4 5 7 3 8 4 6
485 321 371 427 531 411 282 49 7 1 1 0 0 0 0 1 4 13 2 1 6 3 11 10 12 5 10 7 4 1 5 7 6
381 353 534 315 349 345 276 55 21 3 1 0 0 0 0 1 5 31 1 5 4 6 3 6 3 10 3 5 2 4 0 4 4
545 652 604 354 385 306 122 4 0 0 0 0 0 0 0 1 0 16 1 0 9 8 4 3 5 2 3 0 4 0 0 1 2
523 594 462 413 333 285 103 37 0 0 0 0 0 0 0 5 5 10 0 4 7 6 6 4 3 1 0 0 0 0 0 1 0
117 370 354 317 358 298 157 101 0 0 0 0 0 0 0 3 2 5 0 5 7 9 5 2 1 0 0 0 0 0 0 0 0
152 554 418 412 311 337 140 72 17 0 1 0 0 0 0 4 2 0 0 0 9 13 4 0 0 0 0 0 0 0 0 0 0
475 541 554 435 415 361 168 75 26 2 3 0 0 0 0 0 1 0 0 0 9 9 4 1 0 0 0 0 0 0 0 0 0
583 422 523 503 353 337 217 32 17 7 6 0 0 0 0 0 0 1 0 0 7 8 5 2 2 0 0 0 0 0 0 0 0
564 494 482 476 464 379 255 46 24 11 10 0 0 0 0 0 0 0 0 0 0 6 1 3 3 2 3 2 0 0 0 0 0
603 541 535 550 462 334 284 126 44 10 8 2 0 0 0 0 0 0 0 0 0 0 5 5 3 4 4 5 1 1 0 0 0
311 562 509 559 512 413 242 130 68 6 5 1 0 0 0 0 0 0 0 0 0 0 0 0 3 3 2 2 4 7 1 0 0
0 274 609 593 492 438 327 150 83 11 0 0 0 0 0 0 0 0 0 0 0 0 0 0 0 0 2 4 21 33 55 51 18
0 38 363 540 384 357 310 182 82 27 0 0 0 0 0 0 0 0 0 0 0 0 0 0 0 0 0 3 36 52 50 46 32
0 4 125 368 274 213 168 107 53 0 0 0 0 0 0 0 0 0 0 0 0 0 0 0 0 0 0 0 0 3 16 30 16
0 0 28 214 303 239 150 48 40 10 2 0 0 0 0 0 0 0 0 0 0 0 0 0 0 0 0 0 0 0 0 1 6
0 0 0 121 257 160 110 8 44 0 0 0 0 0 0 0 0 0 0 0 0 0 0 0 0 0 0 8 4 0 0 0 0
0 0 0 0 103 125 91 62 8 1 0 0 0 0 0 0 0 0 0 0 0 0 0 0 0 0 0 16 19 19 0 0 0
0 0 0 0 0 66 101 74 18 0 0 0 0 0 0 0 0 0 0 0 0 0 0 0 0 0 0 15 18 1 0 0 9
CIN
-12 -16 -12 -4 -14 -14 -1 -10 -125 -1 0 0 0 0 0 0 0 -1 -2 -1 -1 0 -4 -3 0 0 0 0 -1 -1 0 -1 0
-11 -38 -19 -5 -7 -23 -12 -52 0 -1 0 0 0 0 0 -7 0 0 -1 -1 0 0 -1 -3 -1 -1 0 0 -1 0 0 -1 0
-30 -56 -18 -11 -4 -13 -24 -97 -5 0 0 0 0 0 0 0 0 0 -1 -1 0 0 0 -1 -1 0 0 0 0 0 -1 -1 0
-55 -63 -9 -19 -7 -12 -21 -78 -13 0 0 0 0 0 0 -1 0 -2 -4 -2 0 0 -1 0 0 0 -1 0 0 0 0 0 0
-11 -3 -6 -12 -5 -10 -38 -9 0 0 0 0 0 0 0 -1 0 0 -2 0 0 0 0 0 0 -1 0 0 -1 0 0 0 0
-2 -1 -14 -6 -6 -9 -36 -56 0 0 0 0 0 0 0 0 0 -1 0 -1 0 0 0 0 0 0 0 0 0 0 0 0 0
-118 -20 -31 -17 -2 -6 -12 -11 0 0 0 0 0 0 0 -1 -1 -5 0 0 -2 0 0 0 0 0 0 0 0 0 0 0 0
-73 -3 -15 -6 -7 -1 -11 -31 -25 0 0 0 0 0 0 -1 -1 -4 0 0 -3 -1 0 0 0 0 0 0 0 0 0 0 0
-1 -1 -2 0 0 -1 -6 -35 -93 0 -1 0 0 0 0 0 0 0 0 0 -1 0 0 0 0 0 0 0 0 0 0 0 0
-1 -1 -1 0 -1 0 -11 -65 -84 0 -1 0 0 0 0 0 0 -1 0 0 -2 -1 0 0 0 0 0 0 0 0 0 0 0
-2 -2 -2 -1 -1 -2 -3 -39 -87 0 -1 0 0 0 0 0 0 0 0 0 0 -2 0 0 0 0 0 0 0 0 0 0 0
-3 -2 -1 0 0 0 -1 -11 -19 -83 0 -1 0 0 0 0 0 0 0 0 0 0 0 0 0 0 0 0 0 0 0 0 0
-10 -3 -1 -1 0 0 -1 -11 -26 -7 -1 -1 0 0 0 0 0 0 0 0 0 0 0 0 0 0 -3 0 -1 0 0 0 0
0 -12 -2 -1 -1 0 -1 -1 -10 -17 0 0 0 0 0 0 0 0 0 0 0 0 0 0 0 0 0 -7 -55 -28 -5 0 -2
0 -17 -3 -1 0 0 -3 -4 -3 -10 0 0 0 0 0 0 0 0 0 0 0 0 0 0 0 0 0 -45 -55 -23 -10 -2 -5
0 -5 -1 -9 -8 -13 -8 -9 -14 0 0 0 0 0 0 0 0 0 0 0 0 0 0 0 0 0 0 0 0 -94 -85 -50 -45
0 0 -22 -1 -20 -20 -1 -7 -6 -24 -45 0 0 0 0 0 0 0 0 0 0 0 0 0 0 0 0 0 0 0 0 -79 -122
0 0 0 0 0 0 -1 -1 -6 0 0 0 0 0 0 0 0 0 0 0 0 0 0 0 0 0 0 -130 -96 0 0 0 0
0 0 0 0 0 0 0 0 -3 -27 0 0 0 0 0 0 0 0 0 0 0 0 0 0 0 0 0 -118 -147 -184 0 0 0
0 0 0 0 0 -1 0 -4 -10 -3 -1 0 0 0 0 0 0 0 0 0 0 -4 0 0 0 0 0 -144 -180 -63 0 0 -193
Wind_Speed
10 11 10 11 11 12 11 12 13 12 12 13 14 17 19 19 17 16 14 14 14 14 15 16 18 19 20 22 24 25 26 28 28
9 8 9 9 9 10 10 10 11 11 11 11 12 14 17 16 16 16 15 15 15 14 14 15 17 18 20 21 22 24 25 26 27
7 7 7 7 8 7 8 9 10 10 10 10 10 10 13 14 14 14 14 14 14 14 14 14 15 17 18 20 21 22 24 25 26
6 10 7 5 6 6 6 8 8 9 10 9 9 9 12 15 12 14 14 14 14 14 14 14 15 15 16 18 20 21 22 24 25
3 5 7 9 5 5 5 6 7 8 9 9 9 10 13 12 11 12 12 12 13 13 13 13 13 14 15 17 18 20 21 22 23
2 3 5 5 8 8 4 4 6 7 8 9 9 8 11 11 10 11 10 10 11 12 12 12 13 13 14 15 17 18 19 21 21
3 2 3 4 5 5 3 3 4 5 8 9 8 7 11 11 11 10 9 9 9 10 11 11 11 12 13 14 15 17 18 19 19
8 7 4 3 3 5 1 4 3 5 7 7 7 8 10 10 11 8 7 7 7 8 9 9 10 11 11 13 14 15 16 17 17
10 10 10 7 4 2 2 3 2 3 7 7 7 8 11 11 11 8 7 8 5 6 7 7 8 9 10 11 13 14 15 15 14
15 13 12 11 8 6 5 5 4 3 5 7 9 10 11 11 11 10 6 11 9 5 5 6 7 8 9 11 12 13 13 13 13
19 18 14 13 13 12 9 8 9 6 6 4 6 9 11 11 11 11 7 8 12 9 6 5 6 8 9 10 11 12 12 11 11
23 23 20 17 16 16 15 12 13 11 10 7 8 7 9 12 10 11 10 6 9 11 10 8 7 8 8 10 11 10 9 10 10
27 26 25 22 20 19 18 17 15 15 13 14 13 8 9 10 13 13 12 9 7 9 10 10 10 10 11 11 11 9 7 8 9
30 30 28 25 25 23 22 21 19 19 17 15 14 11 13 12 12 15 14 14 12 10 8 9 11 13 12 12 12 11 12 13 13
35 33 32 30 29 27 26 24 23 21 20 19 19 15 15 14 13 16 17 16 14 15 14 11 14 13 13 13 13 14 14 15 15
40 37 36 34 32 31 29 28 27 27 23 20 21 21 18 14 15 15 19 17 17 15 14 15 15 13 11 11 12 12 13 14 15
44 41 39 39 36 35 33 33 31 30 25 24 22 25 24 16 16 19 19 20 18 18 16 14 15 16 13 12 11 11 12 13 15
43 44 43 40 41 38 35 34 33 32 30 27 25 26 27 21 20 18 20 19 20 19 18 17 16 16 16 15 13 12 12 13 14
42 43 43 44 39 40 37 34 33 32 33 30 31 29 25 24 24 21 20 18 19 19 22 20 18 18 17 16 15 13 12 13 14
42 42 43 43 44 39 39 36 34 34 35 33 32 32 31 29 27 26 21 25 22 19 24 24 22 18 17 17 16 15 13 13 13
Wind_Direction
60 71 47 26 47 52 41 47 38 39 37 40 52 79 99 85 58 46 17 31 34 25 28 35 37 37 41 43 45 42 45 44 42
70 56 44 43 43 44 46 26 39 43 38 32 41 74 113 104 60 53 50 42 41 33 27 30 38 39 43 46 43 44 43 45 44
50 63 40 41 51 41 40 32 32 44 36 25 22 32 104 59 36 37 38 46 48 39 33 28 30 37 40 43 44 45 40 43 43
94 114 74 39 56 55 39 39 31 26 35 23 6 359 316 290 30 56 46 57 53 45 40 35 33 35 36 37 39 39 43 44 43
71 93 94 105 68 57 40 26 29 19 12 14 4 337 309 340 5 16 38 51 50 49 52 43 33 29 28 30 30 33 38 41 41
321 120 109 106 116 110 64 20 7 7 353 356 2 354 335 345 358 3 36 45 57 52 50 44 36 30 28 27 28 31 34 38 41
269 241 149 137 123 121 89 2 352 358 349 336 350 359 334 332 335 350 21 44 51 47 44 42 41 35 28 29 28 32 34 39 41
273 283 258 266 157 136 105 319 328 322 333 345 335 333 333 334 327 347 4 18 37 40 38 41 37 34 32 28 30 32 32 38 43
274 276 270 261 245 214 192 293 295 315 312 324 332 323 315 319 326 341 338 327 9 26 32 31 27 27 22 24 26 25 30 35 43
267 271 270 262 254 248 246 273 276 273 296 307 310 313 311 315 319 327 327 309 317 348 2 10 11 8 10 13 13 17 27 33 36
267 267 264 260 260 261 258 260 282 284 287 280 299 304 305 308 310 318 327 306 300 309 325 341 347 350 355 1 3 10 18 31 35
268 266 264 263 261 262 263 264 275 282 284 282 289 296 297 297 302 306 318 311 297 297 303 314 324 331 340 346 352 3 20 26 29
268 266 264 262 262 260 264 264 269 273 277 282 284 284 293 291 292 295 300 310 306 288 291 299 306 312 320 329 338 350 5 9 12
266 265 264 261 261 260 261 262 263 268 271 275 279 280 284 286 290 289 290 294 300 300 284 277 292 301 309 316 325 336 344 351 357
263 264 263 261 260 257 260 259 261 263 268 271 274 277 281 282 282 285 287 289 291 292 296 290 288 288 297 306 314 324 332 340 347
262 261 261 259 259 257 256 257 258 262 264 267 272 277 277 274 278 281 283 285 286 287 287 289 293 294 284 291 302 313 325 335 343
259 260 259 259 258 257 256 256 258 259 254 258 267 274 277 271 271 277 278 282 283 283 283 283 286 291 296 298 291 299 315 326 335
256 256 258 258 257 256 255 253 253 256 255 254 261 272 276 274 275 264 274 278 280 280 280 279 280 283 288 295 297 297 307 318 328
255 255 256 257 257 256 256 252 252 252 254 251 254 267 279 276 284 268 266 269 272 274 278 278 277 278 282 287 292 296 302 312 322
254 254 254 255 255 257 254 254 251 251 254 254 257 258 268 272 281 281 275 275 271 272 273 275 276 274 276 281 285 286 293 305 314